Location: Binningen
(47.7924°N, 8.7261°E)
Time: 14:33:28
(UTC+00:00)

Terra - Pass Details

Date: 28 September 2021
Orbit: 701 x 703 km, 98.2° (Epoch: 28 October)

Event Time Altitude Azimuth Distance (km) Brightness Sun altitude
Exits shadow 22:00:40 12° 329° (NNW) 2,040 4.8 -41.8°
Drops below altitude 10° 22:01:03 10° 331° (NNW) 2,181 5.0 -41.8°
Sets 22:03:28 0° 340° (NNW) 3,104 6.0 -42.0°
